EZY741 LEPA-LFMN

Flight info

Callsign EZY741
Flight time 1h 24m
Altitude 36000
Route MEROS N853 LUMAS DCT SOFFY DCT MRM DCT ABLAK
Aircraft A320/M-SDE2E3FGHIJ1RWXYZ/LB1

Departure

Time 2026-05-06 12:45
Airport Palma de Mallorca Airport (LEPA)

Arrival

Time 2026-05-06 14:10
Airport Nice-Côte d'Azur Airport (LFMN)
Time Latitude Longitude Altitude Speed Heading
2026-05-06 12:32 39.55079 2.72838 31 ft 0 kts 180°
2026-05-06 12:35 39.55086 2.72838 30 ft 4 kts 180°
2026-05-06 12:35 39.55113 2.72838 29 ft 4 kts 183°
2026-05-06 12:35 39.55139 2.72843 31 ft 4 kts 199°
2026-05-06 12:35 39.55163 2.72859 31 ft 4 kts 225°
2026-05-06 12:36 39.55172 2.72874 31 ft 1 kts 239°
2026-05-06 12:36 39.55173 2.72876 31 ft 0 kts 239°
2026-05-06 12:38 39.55165 2.72860 31 ft 11 kts 238°
2026-05-06 12:38 39.55101 2.72729 30 ft 18 kts 238°
2026-05-06 12:38 39.55044 2.72593 29 ft 16 kts 250°
2026-05-06 12:39 39.55106 2.72500 29 ft 14 kts 331°
2026-05-06 12:39 39.55179 2.72430 28 ft 13 kts 320°
2026-05-06 12:39 39.55204 2.72479 28 ft 10 kts 89°
2026-05-06 12:39 39.55245 2.72639 29 ft 21 kts 59°
2026-05-06 12:40 39.55325 2.72804 30 ft 22 kts 56°
2026-05-06 12:40 39.55409 2.72973 31 ft 22 kts 60°
2026-05-06 12:40 39.55488 2.73150 32 ft 23 kts 57°
2026-05-06 12:40 39.55569 2.73316 33 ft 22 kts 75°
2026-05-06 12:41 39.55649 2.73487 34 ft 22 kts 57°
2026-05-06 12:41 39.55730 2.73659 35 ft 23 kts 59°
2026-05-06 12:41 39.55814 2.73837 36 ft 23 kts 58°
2026-05-06 12:41 39.55899 2.74017 36 ft 24 kts 59°
2026-05-06 12:42 39.55986 2.74196 37 ft 23 kts 51°
2026-05-06 12:42 39.56100 2.74299 39 ft 18 kts 34°
2026-05-06 12:42 39.56123 2.74320 39 ft 0 kts 37°
2026-05-06 12:43 39.56131 2.74327 40 ft 8 kts 36°
2026-05-06 12:43 39.56193 2.74359 40 ft 9 kts 355°
2026-05-06 12:43 39.56228 2.74308 40 ft 8 kts 278°
2026-05-06 12:44 39.56215 2.74243 38 ft 7 kts 249°
2026-05-06 12:44 39.56209 2.74231 39 ft 1 kts 237°
2026-05-06 12:44 39.56096 2.73983 37 ft 69 kts 238°
2026-05-06 12:44 39.55724 2.73205 33 ft 130 kts 238°
2026-05-06 12:45 39.55148 2.72033 47 ft 174 kts 232°
2026-05-06 12:45 39.54477 2.70692 582 ft 181 kts 235°
2026-05-06 12:45 39.53054 2.67693 1487 ft 212 kts 238°
2026-05-06 12:46 39.52307 2.65939 1890 ft 233 kts 241°
2026-05-06 12:46 39.51532 2.63955 2350 ft 258 kts 242°
2026-05-06 12:46 39.50701 2.61798 2892 ft 278 kts 242°
2026-05-06 12:46 39.49798 2.59495 3513 ft 294 kts 243°
2026-05-06 12:47 39.48864 2.57067 4194 ft 307 kts 244°
2026-05-06 12:47 39.47934 2.54562 4919 ft 317 kts 243°
2026-05-06 12:47 39.46986 2.51952 5667 ft 321 kts 245°
2026-05-06 12:47 39.46184 2.49292 6822 ft 305 kts 257°
2026-05-06 12:48 39.46189 2.46577 7915 ft 304 kts 281°
2026-05-06 12:48 39.47095 2.44127 8966 ft 299 kts 295°
2026-05-06 12:48 39.48119 2.41813 9942 ft 297 kts 290°
2026-05-06 12:48 39.48886 2.39289 10495 ft 306 kts 283°
2026-05-06 12:49 39.49571 2.36613 11007 ft 318 kts 296°
2026-05-06 12:49 39.51054 2.34450 11674 ft 331 kts 323°
2026-05-06 12:49 39.53238 2.33412 12365 ft 345 kts 351°
2026-05-06 12:49 39.55649 2.33783 13043 ft 359 kts 18°
2026-05-06 12:50 39.57744 2.35519 13680 ft 371 kts 45°
2026-05-06 12:50 39.59189 2.38318 14276 ft 377 kts 63°
2026-05-06 12:50 39.60408 2.41369 14888 ft 381 kts 61°
2026-05-06 12:50 39.61690 2.44400 15478 ft 386 kts 60°
2026-05-06 12:51 39.63048 2.47429 16096 ft 389 kts 58°
2026-05-06 12:51 39.64460 2.50443 16692 ft 393 kts 58°
2026-05-06 12:51 39.65891 2.53440 17246 ft 397 kts 57°
2026-05-06 12:51 39.67364 2.56505 17808 ft 402 kts 57°
2026-05-06 12:52 39.68850 2.59601 18375 ft 406 kts 57°
2026-05-06 12:52 39.70350 2.62744 18888 ft 409 kts 58°
2026-05-06 12:52 39.71852 2.65915 19369 ft 414 kts 58°
2026-05-06 12:52 39.73362 2.69125 19842 ft 417 kts 58°
2026-05-06 12:53 39.74863 2.72321 20311 ft 421 kts 58°
2026-05-06 12:53 39.76400 2.75598 20798 ft 425 kts 58°
2026-05-06 12:53 39.77950 2.78903 21288 ft 429 kts 58°
2026-05-06 12:53 39.79511 2.82236 21727 ft 434 kts 58°
2026-05-06 12:54 39.81084 2.85601 22190 ft 437 kts 58°
2026-05-06 12:54 39.82658 2.88973 22610 ft 441 kts 58°
2026-05-06 12:54 39.84257 2.92401 23080 ft 445 kts 58°
2026-05-06 12:54 39.85873 2.95858 23497 ft 448 kts 58°
2026-05-06 12:55 39.87500 2.99347 23866 ft 451 kts 58°
2026-05-06 12:55 39.89129 3.02857 24243 ft 454 kts 58°
2026-05-06 12:55 39.90768 3.06393 24593 ft 456 kts 59°
2026-05-06 12:55 39.92391 3.09898 24979 ft 458 kts 58°
2026-05-06 12:56 39.94045 3.13474 25343 ft 461 kts 59°
2026-05-06 12:56 39.95708 3.17071 25718 ft 464 kts 59°
2026-05-06 12:56 39.97376 3.20678 26062 ft 466 kts 59°
2026-05-06 12:56 39.99051 3.24303 26428 ft 469 kts 59°
2026-05-06 12:57 40.00736 3.27953 26747 ft 472 kts 59°
2026-05-06 12:57 40.02439 3.31640 27081 ft 474 kts 59°
2026-05-06 12:57 40.04148 3.35341 27416 ft 477 kts 59°
2026-05-06 12:57 40.05862 3.39063 27750 ft 479 kts 59°
2026-05-06 12:58 40.07559 3.42758 28076 ft 482 kts 59°
2026-05-06 12:58 40.09288 3.46528 28402 ft 484 kts 59°
2026-05-06 12:58 40.11021 3.50318 28722 ft 487 kts 59°
2026-05-06 12:58 40.12766 3.54134 29043 ft 489 kts 59°
2026-05-06 12:59 40.14522 3.57975 29368 ft 492 kts 59°
2026-05-06 12:59 40.16279 3.61825 29680 ft 494 kts 59°
2026-05-06 12:59 40.18041 3.65690 29982 ft 496 kts 59°
2026-05-06 12:59 40.19787 3.69525 30267 ft 498 kts 59°
2026-05-06 13:00 40.21576 3.73454 30440 ft 503 kts 59°
2026-05-06 13:00 40.23370 3.77406 30659 ft 505 kts 59°
2026-05-06 13:00 40.25169 3.81377 30877 ft 507 kts 59°
2026-05-06 13:00 40.26951 3.85309 31145 ft 508 kts 59°
2026-05-06 13:01 40.28763 3.89311 31456 ft 508 kts 59°
2026-05-06 13:01 40.30565 3.93292 31808 ft 507 kts 59°
2026-05-06 13:01 40.32366 3.97281 32143 ft 506 kts 59°
2026-05-06 13:01 40.34155 4.01251 32478 ft 506 kts 59°
2026-05-06 13:02 40.35921 4.05178 32787 ft 506 kts 59°
2026-05-06 13:02 40.37714 4.09166 33096 ft 505 kts 59°
2026-05-06 13:02 40.39497 4.13137 33428 ft 505 kts 59°
2026-05-06 13:02 40.41281 4.17115 33766 ft 506 kts 59°
2026-05-06 13:03 40.43061 4.21100 34011 ft 506 kts 59°
2026-05-06 13:03 40.44839 4.25088 34297 ft 505 kts 59°
2026-05-06 13:03 40.46803 4.28852 34560 ft 504 kts 49°
2026-05-06 13:03 40.49221 4.32184 34819 ft 501 kts 38°
2026-05-06 13:04 40.51991 4.34942 35062 ft 496 kts 28°
2026-05-06 13:04 40.55018 4.37071 35300 ft 490 kts 18°
2026-05-06 13:04 40.58187 4.38527 35523 ft 483 kts
2026-05-06 13:04 40.61464 4.39397 35742 ft 479 kts
2026-05-06 13:05 40.64742 4.40171 35922 ft 479 kts
2026-05-06 13:05 40.71269 4.41732 35969 ft 474 kts
2026-05-06 13:06 40.77721 4.43289 35970 ft 473 kts
2026-05-06 13:06 40.84202 4.44854 35981 ft 473 kts
2026-05-06 13:07 40.90705 4.46424 35972 ft 474 kts
2026-05-06 13:07 40.97156 4.47981 35971 ft 474 kts
2026-05-06 13:08 41.03663 4.49563 35970 ft 474 kts
2026-05-06 13:08 41.10158 4.51150 35987 ft 474 kts
2026-05-06 13:09 41.16617 4.52723 35972 ft 474 kts
2026-05-06 13:09 41.23122 4.54307 35971 ft 475 kts
2026-05-06 13:10 41.29634 4.55898 35982 ft 475 kts
2026-05-06 13:10 41.36111 4.57490 35955 ft 475 kts
2026-05-06 13:11 41.42635 4.59090 35957 ft 476 kts
2026-05-06 13:11 41.49163 4.60688 35983 ft 476 kts
2026-05-06 13:12 41.55689 4.62290 35967 ft 477 kts
2026-05-06 13:12 41.62173 4.63889 35962 ft 477 kts
2026-05-06 13:13 41.68716 4.65517 35988 ft 477 kts
2026-05-06 13:13 41.75232 4.67403 35972 ft 482 kts 11°
2026-05-06 13:14 41.81640 4.69926 35962 ft 482 kts 11°
2026-05-06 13:14 41.88104 4.72449 35959 ft 483 kts 11°
2026-05-06 13:15 41.94527 4.74962 35970 ft 483 kts 11°
2026-05-06 13:15 41.99900 4.77088 35960 ft 483 kts 11°
2026-05-06 13:16 42.06366 4.79651 35958 ft 483 kts 11°
2026-05-06 13:16 42.12802 4.82189 35985 ft 484 kts 11°
2026-05-06 13:17 42.19281 4.84753 35974 ft 484 kts 11°
2026-05-06 13:17 42.25747 4.87315 35967 ft 484 kts 11°
2026-05-06 13:18 42.32217 4.89891 35976 ft 484 kts 12°
2026-05-06 13:18 42.38652 4.92465 35965 ft 484 kts 12°
2026-05-06 13:19 42.45124 4.95058 35958 ft 484 kts 12°
2026-05-06 13:19 42.51587 4.97647 35972 ft 484 kts 12°
2026-05-06 13:20 42.58035 5.00224 35958 ft 485 kts 12°
2026-05-06 13:20 42.64511 5.02826 35953 ft 485 kts 12°
2026-05-06 13:21 42.70984 5.05442 35947 ft 485 kts 12°
2026-05-06 13:21 42.77464 5.08064 35943 ft 485 kts 12°
2026-05-06 13:22 42.83907 5.10668 35944 ft 485 kts 12°
2026-05-06 13:22 42.90404 5.13303 35955 ft 485 kts 12°
2026-05-06 13:23 42.96848 5.15923 35965 ft 485 kts 12°
2026-05-06 13:23 43.03314 5.18557 35961 ft 485 kts 12°
2026-05-06 13:24 43.09754 5.21184 35953 ft 485 kts 12°
2026-05-06 13:24 43.16217 5.23829 35966 ft 484 kts 12°
2026-05-06 13:25 43.22685 5.26474 35957 ft 484 kts 12°
2026-05-06 13:25 43.29108 5.29103 35956 ft 484 kts 12°
2026-05-06 13:26 43.35530 5.32035 35972 ft 488 kts 21°
2026-05-06 13:26 43.38529 5.34276 35929 ft 491 kts 32°
2026-05-06 13:26 43.41175 5.37174 35926 ft 493 kts 45°
2026-05-06 13:26 43.43379 5.40784 35922 ft 493 kts 57°
2026-05-06 13:27 43.45057 5.44881 35920 ft 491 kts 69°
2026-05-06 13:27 43.46111 5.49324 35908 ft 485 kts 83°
2026-05-06 13:27 43.46453 5.53902 35899 ft 477 kts 96°
2026-05-06 13:27 43.46097 5.58398 35894 ft 467 kts 109°
2026-05-06 13:28 43.45140 5.62620 35888 ft 459 kts 117°
2026-05-06 13:28 43.42918 5.70844 35888 ft 461 kts 117°
2026-05-06 13:29 43.40681 5.79146 35881 ft 463 kts 117°
2026-05-06 13:29 43.38451 5.87406 35887 ft 463 kts 117°
2026-05-06 13:30 43.36200 5.95713 35893 ft 463 kts 117°
2026-05-06 13:30 43.33945 6.04009 35889 ft 463 kts 117°
2026-05-06 13:31 43.31677 6.12306 35855 ft 462 kts 118°
2026-05-06 13:31 43.29431 6.20533 35871 ft 462 kts 118°
2026-05-06 13:32 43.27166 6.28787 35887 ft 462 kts 118°
2026-05-06 13:32 43.24889 6.37042 35867 ft 462 kts 118°
2026-05-06 13:33 43.22618 6.45225 35871 ft 461 kts 118°
2026-05-06 13:33 43.20328 6.53460 35862 ft 461 kts 118°
2026-05-06 13:34 43.18035 6.61688 35876 ft 461 kts 118°
2026-05-06 13:34 43.16901 6.65758 35507 ft 464 kts 118°
2026-05-06 13:34 43.15742 6.69905 34915 ft 464 kts 119°
2026-05-06 13:34 43.14587 6.74031 34360 ft 462 kts 120°
2026-05-06 13:35 43.13437 6.78140 33760 ft 461 kts 120°
2026-05-06 13:35 43.12290 6.82241 33162 ft 459 kts 120°
2026-05-06 13:35 43.11169 6.86248 32599 ft 455 kts 120°
2026-05-06 13:35 43.10038 6.90281 32067 ft 451 kts 120°
2026-05-06 13:36 43.08908 6.94292 31512 ft 449 kts 120°
2026-05-06 13:36 43.07783 6.98264 30970 ft 446 kts 120°
2026-05-06 13:36 43.06662 7.02216 30449 ft 443 kts 121°
2026-05-06 13:36 43.05546 7.06143 29912 ft 441 kts 121°
2026-05-06 13:37 43.04451 7.09987 29375 ft 437 kts 121°
2026-05-06 13:37 43.03350 7.13848 28881 ft 432 kts 121°
2026-05-06 13:37 43.02264 7.17658 28397 ft 427 kts 121°
2026-05-06 13:37 43.01186 7.21430 27920 ft 423 kts 121°
2026-05-06 13:38 43.00131 7.25115 27445 ft 419 kts 120°
2026-05-06 13:38 42.99075 7.28818 26955 ft 415 kts 120°
2026-05-06 13:38 42.98031 7.32482 26479 ft 411 kts 120°
2026-05-06 13:38 42.96992 7.36116 25991 ft 408 kts 120°
2026-05-06 13:39 42.95956 7.39720 25488 ft 406 kts 120°
2026-05-06 13:39 42.94922 7.43303 24990 ft 405 kts 120°
2026-05-06 13:39 42.93890 7.46872 24475 ft 404 kts 120°
2026-05-06 13:39 42.92859 7.50434 23960 ft 403 kts 119°
2026-05-06 13:40 42.91841 7.53943 23424 ft 403 kts 119°
2026-05-06 13:40 42.90809 7.57497 22852 ft 401 kts 119°
2026-05-06 13:40 42.89783 7.61035 22330 ft 399 kts 118°
2026-05-06 13:40 42.88766 7.64545 21823 ft 397 kts 118°
2026-05-06 13:41 42.87752 7.68047 21330 ft 395 kts 118°
2026-05-06 13:41 42.86753 7.71480 20835 ft 393 kts 118°
2026-05-06 13:41 42.85740 7.74942 20369 ft 391 kts 118°
2026-05-06 13:41 42.84739 7.78372 19864 ft 390 kts 118°
2026-05-06 13:42 42.83733 7.81806 19415 ft 388 kts 118°
2026-05-06 13:42 42.82733 7.85217 19030 ft 384 kts 118°
2026-05-06 13:42 42.81750 7.88571 18558 ft 384 kts 118°
2026-05-06 13:42 42.80846 7.91984 18177 ft 386 kts 108°
2026-05-06 13:43 42.80730 7.95669 17717 ft 394 kts 83°
2026-05-06 13:43 42.81653 7.99165 17297 ft 394 kts 58°
2026-05-06 13:43 42.83461 8.01902 16903 ft 387 kts 34°
2026-05-06 13:43 42.85826 8.03488 16492 ft 375 kts 10°
2026-05-06 13:44 42.88377 8.04017 16064 ft 368 kts
2026-05-06 13:44 42.90893 8.04400 15657 ft 366 kts
2026-05-06 13:44 42.93415 8.04772 15266 ft 363 kts
2026-05-06 13:44 42.95924 8.05140 14901 ft 360 kts
2026-05-06 13:45 42.98409 8.05504 14542 ft 357 kts
2026-05-06 13:45 43.03280 8.06226 13833 ft 351 kts
2026-05-06 13:45 43.05699 8.06589 13455 ft 348 kts
2026-05-06 13:46 43.08102 8.06951 12995 ft 347 kts
2026-05-06 13:46 43.10490 8.07314 12641 ft 343 kts
2026-05-06 13:46 43.12847 8.07672 12284 ft 339 kts
2026-05-06 13:46 43.15177 8.08025 11962 ft 335 kts
2026-05-06 13:47 43.17480 8.08375 11622 ft 331 kts
2026-05-06 13:47 43.19765 8.08718 11298 ft 327 kts
2026-05-06 13:47 43.22022 8.09059 10977 ft 324 kts
2026-05-06 13:47 43.24223 8.09389 10660 ft 320 kts
2026-05-06 13:48 43.26435 8.09690 10350 ft 315 kts 357°
2026-05-06 13:48 43.28553 8.09306 10050 ft 303 kts 337°
2026-05-06 13:48 43.30391 8.08042 9769 ft 290 kts 317°
2026-05-06 13:48 43.31774 8.06116 9469 ft 279 kts 300°
2026-05-06 13:49 43.32751 8.03837 9195 ft 275 kts 295°
2026-05-06 13:49 43.33679 8.01576 8929 ft 274 kts 295°
2026-05-06 13:49 43.34619 7.99304 8678 ft 273 kts 295°
2026-05-06 13:49 43.35556 7.97041 8429 ft 271 kts 295°
2026-05-06 13:50 43.36482 7.94809 8168 ft 267 kts 295°
2026-05-06 13:50 43.37396 7.92607 7914 ft 264 kts 294°
2026-05-06 13:50 43.38300 7.90440 7687 ft 260 kts 295°
2026-05-06 13:50 43.39201 7.88242 7429 ft 265 kts 295°
2026-05-06 13:51 43.40102 7.86033 7180 ft 265 kts 296°
2026-05-06 13:51 43.41014 7.83828 6947 ft 265 kts 298°
2026-05-06 13:51 43.42161 7.81885 6696 ft 267 kts 311°
2026-05-06 13:51 43.43618 7.80290 6448 ft 266 kts 317°
2026-05-06 13:52 43.45092 7.78759 6200 ft 265 kts 317°
2026-05-06 13:52 43.46559 7.77228 5949 ft 265 kts 317°
2026-05-06 13:52 43.48028 7.75695 5696 ft 263 kts 317°
2026-05-06 13:52 43.49486 7.74176 5437 ft 262 kts 317°
2026-05-06 13:53 43.50937 7.72661 5206 ft 261 kts 319°
2026-05-06 13:53 43.52367 7.71160 4962 ft 261 kts 319°
2026-05-06 13:53 43.53801 7.69657 4723 ft 257 kts 317°
2026-05-06 13:53 43.55218 7.68169 4520 ft 256 kts 316°
2026-05-06 13:54 43.56638 7.66669 4355 ft 256 kts 316°
2026-05-06 13:54 43.58047 7.65182 4155 ft 254 kts 317°
2026-05-06 13:54 43.59454 7.63696 3905 ft 255 kts 318°
2026-05-06 13:54 43.60846 7.62227 3691 ft 253 kts 319°
2026-05-06 13:55 43.62210 7.60797 3599 ft 239 kts 317°
2026-05-06 13:55 43.63504 7.59445 3512 ft 226 kts 319°
2026-05-06 13:55 43.64704 7.58128 3411 ft 213 kts 309°
2026-05-06 13:55 43.65531 7.56534 3314 ft 198 kts 291°
2026-05-06 13:56 43.65909 7.54793 3229 ft 188 kts 274°
2026-05-06 13:56 43.65939 7.52995 3150 ft 186 kts 266°
2026-05-06 13:56 43.65938 7.51208 3067 ft 187 kts 268°
2026-05-06 13:56 43.65940 7.49415 3002 ft 185 kts 268°
2026-05-06 13:57 43.65945 7.47705 3019 ft 168 kts 268°
2026-05-06 13:57 43.65952 7.46191 3011 ft 150 kts 267°
2026-05-06 13:57 43.65955 7.44797 3007 ft 141 kts 266°
2026-05-06 13:57 43.65954 7.43456 3007 ft 139 kts 265°
2026-05-06 13:58 43.65953 7.42121 3006 ft 138 kts 265°
2026-05-06 13:58 43.65952 7.40775 3010 ft 143 kts 267°
2026-05-06 13:58 43.65955 7.39430 3006 ft 139 kts 265°
2026-05-06 13:58 43.65957 7.38117 3008 ft 138 kts 266°
2026-05-06 13:59 43.65960 7.36792 3004 ft 138 kts 265°
2026-05-06 13:59 43.65962 7.35440 3009 ft 143 kts 267°
2026-05-06 13:59 43.65965 7.34099 2997 ft 132 kts 267°
2026-05-06 13:59 43.65953 7.32929 2971 ft 112 kts 253°
2026-05-06 14:00 43.66009 7.31830 2451 ft 137 kts 291°
2026-05-06 14:00 43.66740 7.30784 1895 ft 155 kts 303°
2026-05-06 14:00 43.67568 7.29835 1487 ft 154 kts 309°
2026-05-06 14:00 43.68435 7.28967 1166 ft 152 kts 315°
2026-05-06 14:01 43.69168 7.28102 1068 ft 125 kts 287°
2026-05-06 14:01 43.69210 7.26986 697 ft 117 kts 240°
2026-05-06 14:01 43.69036 7.25928 457 ft 114 kts 250°
2026-05-06 14:01 43.68711 7.24979 205 ft 108 kts 224°
2026-05-06 14:02 43.68142 7.24173 561 ft 117 kts 220°
2026-05-06 14:02 43.67667 7.23469 675 ft 102 kts 220°
2026-05-06 14:02 43.67166 7.22602 475 ft 119 kts 225°
2026-05-06 14:02 43.66606 7.21805 1196 ft 130 kts 218°
2026-05-06 14:03 43.65659 7.20970 1391 ft 185 kts 207°
2026-05-06 14:03 43.64905 7.20518 2323 ft 169 kts 198°
2026-05-06 14:03 43.63730 7.20214 3415 ft 189 kts 179°
2026-05-06 14:03 43.62347 7.21055 3535 ft 260 kts 142°
2026-05-06 14:04 43.61266 7.23418 3439 ft 326 kts 109°
2026-05-06 14:04 43.61101 7.26759 3257 ft 371 kts 82°
2026-05-06 14:04 43.61792 7.30317 3077 ft 393 kts 70°
2026-05-06 14:04 43.62703 7.33802 3412 ft 380 kts 71°
2026-05-06 14:05 43.63923 7.37099 3423 ft 397 kts 53°
2026-05-06 14:05 43.65769 7.39944 4479 ft 394 kts 45°
2026-05-06 14:05 43.67770 7.42749 4712 ft 415 kts 39°
2026-05-06 14:05 43.69830 7.45353 5855 ft 413 kts 39°
2026-05-06 14:06 43.72199 7.47583 6784 ft 404 kts 24°
2026-05-06 14:06 43.74810 7.49119 6071 ft 411 kts
2026-05-06 14:06 43.77559 7.49075 5539 ft 393 kts 340°
2026-05-06 14:06 43.79939 7.47321 4625 ft 389 kts 313°
2026-05-06 14:07 43.81269 7.44307 4827 ft 349 kts 279°
2026-05-06 14:07 43.81394 7.41015 3216 ft 371 kts 249°
2026-05-06 14:07 43.79998 7.38051 3097 ft 358 kts 224°
2026-05-06 14:07 43.78102 7.35795 2265 ft 361 kts 212°
2026-05-06 14:08 43.75984 7.34056 3128 ft 339 kts 206°
2026-05-06 14:08 43.73822 7.32709 2844 ft 335 kts 202°
2026-05-06 14:08 43.72013 7.31166 2520 ft 293 kts 221°
2026-05-06 14:08 43.70652 7.29089 1364 ft 295 kts 229°
2026-05-06 14:09 43.69407 7.26922 848 ft 275 kts 230°
2026-05-06 14:09 43.68141 7.25010 492 ft 261 kts 222°
2026-05-06 14:09 43.66981 7.23466 192 ft 204 kts 224°
2026-05-06 14:09 43.66140 7.22224 70 ft 143 kts 221°
2026-05-06 14:10 43.65611 7.21531 26 ft 64 kts 223°
2026-05-06 14:10 43.65502 7.21367 27 ft 1 kts 282°
2026-05-06 14:10 43.65478 7.21303 25 ft 12 kts 239°
2026-05-06 14:10 43.65435 7.21188 24 ft 16 kts 245°
2026-05-06 14:11 43.65387 7.20974 22 ft 26 kts 257°
2026-05-06 14:11 43.65370 7.20769 23 ft 20 kts 297°
2026-05-06 14:11 43.65500 7.20695 24 ft 20 kts 352°
2026-05-06 14:11 43.65629 7.20662 22 ft 18 kts 332°
2026-05-06 14:12 43.65728 7.20612 24 ft 16 kts 32°
2026-05-06 14:12 43.65785 7.20637 22 ft 7 kts 317°
2026-05-06 14:12 43.65823 7.20604 22 ft 6 kts 329°
2026-05-06 14:12 43.65836 7.20594 22 ft 0 kts 330°